Terminal Aerodrome Forecast
Issued by NWS Shreveport, LA

Home | Current Version | Previous Version | Text Only | Print | Product List | Glossary On
Versions: 1 2 3 4 5 6 7 8 9 10 11 12 13 14
000
FTUS44 KSHV 242300
TAFTYR
TAF
KTYR 242321Z 2500/2524 16004KT P6SM SCT250
     FM251500 22008KT P6SM SKC=

USA.gov is the U.S. government's official web portal to all federal, state and local government web resources and services.